Regional Weather Roundup
Issued by NWS

Home | Current Version | Previous Version | Text Only | Print | Product List | Glossary On
Versions: 1 2 3 4 5 6 7 8 9 10 11 12 13 14 15 16 17 18 19 20 21 22 23 24 25 26 27 28 29 30 31 32 33 34 35 36 37 38 39 40 41 42 43 44 45 46 47 48 49 50
000
ASUS42 KFFC 262010
RWRGA
WEATHER ROUNDUP FOR GEORGIA
NATIONAL WEATHER SERVICE PEACHTREE CITY GA
400 PM EDT WED APR 26 2017

NOTE: "FAIR" INDICATES FEW OR NO CLOUDS BELOW 12,000 FEET WITH NO
SIGNIFICANT WEATHER AND/OR OBSTRUCTIONS TO VISIBILITY.

* = USE WITH CAUTION. THE STATIONS MARKED WITH AN ASTERISK MAY NOT
REPORT WEATHER SUCH AS PRECIPITATION, FOG, OR THUNDER AND ARE NOT
QUALITY CONTROLLED BY NWS.

THE REMARK "TC" DENOTES TEMPERATURE READING IN DEGREES CELSIUS.

GAZ001>058-262100-
NORTH GEORGIA

CITY           SKY/WX    TMP DP  RH WIND       PRES   REMARKS
ATLANTA        MOSUNNY   79  57  46 S16       29.79F
ATHENS         SUNNY     82  59  45 CALM      29.80S
CHAMBLEE       SUNNY     79  56  45 S8        29.79F
PEACHTREE CITY SUNNY     80  57  45 VRB7      29.79F
ROME           SUNNY     82  59  45 VRB7G21   29.75F
WEST ATLANTA   SUNNY     80  59  48 VRB7      29.78F
GAINESVILLE    SUNNY     80  55  42 VRB7      29.82F
CARTERSVILLE   SUNNY     80  60  50 SE10      29.77F


CITY           SKY/WX    TMP DP  RH WIND       PRES   REMARKS
DALTON*        SUNNY     79  59  50 S9        29.76S
LAWRENCEVILLE* SUNNY     81  57  44 S12       29.81F
MARIETTA       MOSUNNY   80  55  42 S7        29.79F
KENNESAW*      SUNNY     79  57  47 SW10      29.75F
CANTON*        SUNNY     81  41  24 S8        29.80F
$$

GAZ059>098-102>109-262100-
CENTRAL GEORGIA

CITY           SKY/WX    TMP DP  RH WIND       PRES   REMARKS
AUGUSTA-BUSH   SUNNY     86  60  41 SW9G20    29.78F
AUGUSTA-DANIEL SUNNY     85  54  34 SW8       29.80F
COLUMBUS       MOSUNNY   82  57  42 S8        29.78F
MACON          MOSUNNY   82  57  42 SW9       29.80F
ROBINS AFB     MOSUNNY   84  60  44 S12       29.79F


CITY           SKY/WX    TMP DP  RH WIND       PRES   REMARKS
LAGRANGE*      SUNNY     81  64  55 S12       29.79F
SYLVANIA*      MOSUNNY  N/A N/A N/A CALM      29.81F
MILLEDGEVILLE* MOSUNNY   82  63  51 W5        29.80S
$$

GAZ099>101-110>166-262100-
SOUTH GEORGIA

CITY           SKY/WX    TMP DP  RH WIND       PRES   REMARKS
SAVANNAH       MOSUNNY   85  56  37 SE10      29.81F
VALDOSTA       PTSUNNY   83  55  38 S13       29.82S
ALMA           MOSUNNY   83  57  41 VRB3      29.81F
ST SIMONS      SUNNY     79  60  52 SE12      29.82F
FT STEWART     MOSUNNY   83  59  43 S3        29.79F
ALBANY         PTSUNNY   81  57  43 SE13G18   29.82F
HUNTER AFB     SUNNY     82  62  50 SE8       29.79F
MOODY AFB      MOSUNNY   84  55  37 S14       29.80F
BRUNSWICK      MOSUNNY   82  64  54 SE9       29.82S


CITY           SKY/WX    TMP DP  RH WIND       PRES   REMARKS
BAINBRIDGE*    MOSUNNY   81  55  41 S8        29.81S
MOULTRIE*      MOSUNNY   81  57  44 SW6       29.82F
VIDALIA*       CLOUDY    86  59  39 SW6       29.81F
WAYCROSS*      PTSUNNY   85  59  41 SW8       29.81S
DOUGLAS*       PTSUNNY   82  54  36 SW10G17   29.83F
$$




USA.gov is the U.S. government's official web portal to all federal, state and local government web resources and services.